EW5291 Weather Reports


Display with metric or nautical units.
time (UTC)temp
F
wind
direction
speed
MPH
gust
MPH
rain 1hr
in
rain 24hr
in
rain mn
in
humidity
%
barometer
mb
20260503033006 42 190 0.0 0.0 0.00 0.38 0.38 69 1011.2
20260503032005 42 0 0.0 0.0 0.00 0.38 0.38 69 1010.5
20260503031605 42 190 0.0 0.0 0.00 0.38 0.38 69 1011.1
20260503031504 43 0 0.0 0.0 0.00 0.38 0.38 68 1010.4
20260503030504 43 0 0.0 0.0 0.00 0.38 0.38 65 1010.4
20260503030109 42 190 0.0 0.0 0.00 0.38 0.38 63 1011.3
20260503030004 43 0 0.0 0.0 0.00 0.38 0.38 63 1010.5
20260503025505 43 0 0.0 0.0 0.00 0.38 0.38 63 1010.6
20260503025005 43 0 0.0 0.0 0.00 0.38 0.38 64 1010.5
20260503024604 43 190 0.0 0.0 0.00 0.38 0.38 62 1011.2
20260503024004 44 0 0.0 0.0 0.00 0.38 0.38 63 1010.5
20260503023505 44 0 0.0 0.0 0.00 0.38 0.38 61 1010.4
20260503023106 43 190 0.0 0.0 0.00 0.38 0.38 59 1011.2
20260503022504 44 0 0.0 0.0 0.00 0.38 0.38 63 1010.6
20260503022005 44 0 0.0 0.0 0.00 0.38 0.38 61 1010.5
20260503021612 44 190 0.0 0.0 0.00 0.38 0.38 61 1011.3
20260503021504 44 0 0.0 0.0 0.00 0.38 0.38 64 1010.5
20260503021005 44 0 0.0 0.0 0.00 0.38 0.38 63 1010.5
20260503020504 45 0 0.0 0.0 0.00 0.38 0.38 62 1010.5
20260503020111 44 190 0.0 0.0 0.00 0.38 0.38 60 1011.3
20260503015504 45 0 0.0 0.0 0.00 0.38 0.38 58 1010.6
20260503014604 45 190 0.0 0.0 0.00 0.38 0.38 54 1011.3
20260503014504 46 0 0.0 0.0 0.00 0.38 0.38 55 1010.5
20260503014004 46 0 0.0 0.0 0.00 0.38 0.38 58 1010.5
20260503013504 46 0 0.0 0.0 0.00 0.38 0.38 60 1010.5
20260503013103 46 190 0.0 0.0 0.00 0.38 0.38 61 1011.3
20260503012504 47 0 0.0 0.0 0.00 0.38 0.38 60 1010.7
20260503012004 47 0 0.0 0.0 0.00 0.38 0.38 59 1010.6
20260503011610 47 190 0.0 0.0 0.00 0.38 0.38 55 1011.2
20260503011504 47 0 0.0 0.0 0.00 0.38 0.38 56 1010.5
20260503011005 47 0 0.0 0.0 0.00 0.38 0.38 59 1010.5
20260503010106 47 190 0.0 0.0 0.00 0.38 0.38 56 1011.2
20260503010005 48 0 0.0 0.0 0.00 0.38 0.38 54 1010.4
20260503005504 48 0 0.0 0.0 0.00 0.38 0.38 56 1010.4
20260503005005 48 0 0.0 0.0 0.00 0.38 0.38 56 1010.3
20260503004604 48 190 0.0 0.0 0.00 0.38 0.38 57 1010.9
20260503004504 48 0 0.0 0.0 0.00 0.38 0.38 56 1010.2
20260503003105 48 190 0.0 1.0 0.00 0.38 0.38 57 1010.7
20260503003004 49 0 0.0 0.0 0.00 0.38 0.38 57 1010.0
20260503002005 49 0 0.0 0.0 0.00 0.38 0.38 57 1009.8
20260503001606 49 190 0.0 0.0 0.00 0.38 0.38 58 1010.5
20260503001504 50 0 0.0 0.0 0.00 0.38 0.38 58 1009.8
20260503000505 50 0 0.0 0.0 0.00 0.38 0.38 60 1009.6
20260503000103 50 190 0.0 0.0 0.00 0.38 0.38 64 1010.2
20260503000005 50 0 0.0 0.0 0.00 0.38 0.38 64 1009.5
20260502235504 50 0 0.0 0.0 0.00 0.38 0.38 65 1009.5
20260502235004 50 0 0.0 0.0 0.00 0.38 0.38 61 1009.5
20260502234604 50 190 0.0 0.0 0.00 0.38 0.38 63 1010.2
20260502234504 51 0 0.0 0.0 0.00 0.38 0.38 63 1009.5
20260502234005 51 0 0.0 0.0 0.00 0.38 0.38 64 1009.4
20260502233505 51 0 0.0 0.0 0.00 0.38 0.38 67 1009.3
20260502233104 51 190 0.0 0.0 0.00 0.38 0.38 69 1010.0
20260502233004 52 0 0.0 0.0 0.00 0.38 0.38 69 1009.3
20260502232504 52 0 0.0 0.0 0.00 0.38 0.38 69 1009.2
20260502231605 52 190 0.0 0.0 0.00 0.38 0.38 64 1009.8
20260502231505 53 0 0.0 0.0 0.00 0.38 0.38 64 1009.1
20260502231004 54 0 0.0 0.0 0.00 0.38 0.38 61 1009.1
20260502230505 54 0 0.0 0.0 0.00 0.38 0.38 63 1009.1
20260502230104 54 190 0.0 0.0 0.00 0.38 0.38 66 1009.8
20260502225005 55 0 0.0 0.0 0.00 0.38 0.38 67 1009.0
20260502224606 55 190 0.0 0.0 0.00 0.38 0.38 65 1009.7
20260502224505 55 0 0.0 0.0 0.00 0.38 0.38 65 1008.9
20260502224005 55 0 0.0 0.0 0.00 0.38 0.38 69 1008.8
20260502223504 55 0 0.0 0.0 0.00 0.38 0.38 64 1008.8
20260502223103 54 190 0.0 0.0 0.00 0.38 0.38 69 1009.5
20260502223005 55 0 0.0 0.0 0.00 0.38 0.38 70 1008.7
20260502222505 55 0 0.0 0.0 0.00 0.38 0.38 67 1008.6
20260502222005 54 0 0.0 0.0 0.00 0.38 0.38 69 1008.6
20260502221606 54 190 0.0 0.0 0.00 0.38 0.38 68 1009.3
20260502220504 54 0 0.0 0.0 0.00 0.38 0.38 71 1008.6
20260502220147 54 190 0.0 0.0 0.00 0.38 0.38 62 1009.4
20260502220004 54 0 0.0 0.0 0.00 0.38 0.38 63 1008.8
20260502215005 54 0 0.0 0.0 0.00 0.38 0.38 70 1008.7
20260502214603 53 190 0.0 0.0 0.00 0.38 0.38 73 1009.4
20260502214504 54 0 0.0 0.0 0.00 0.38 0.38 73 1008.7
20260502214004 54 0 0.0 0.0 0.00 0.38 0.38 73 1008.8
20260502213505 54 0 0.0 0.0 0.00 0.38 0.38 74 1008.9
20260502213108 53 190 0.0 0.0 0.00 0.38 0.38 75 1009.4
20260502212504 54 0 0.0 0.0 0.00 0.38 0.38 72 1008.8
20260502211604 54 190 0.0 0.0 0.00 0.38 0.38 73 1009.3
20260502211504 54 0 0.0 0.0 0.00 0.38 0.38 75 1008.8
20260502211004 54 0 0.0 0.0 0.00 0.38 0.38 74 1008.7
20260502210504 54 0 0.0 0.0 0.00 0.38 0.38 76 1008.8
20260502210112 53 190 0.0 0.0 0.00 0.38 0.38 76 1009.5
20260502210005 53 0 0.0 0.0 0.00 0.38 0.38 76 1008.8
20260502204612 53 190 0.0 0.0 0.00 0.38 0.38 77 1009.5
20260502204004 53 0 0.0 0.0 0.00 0.38 0.38 77 1008.8
20260502203504 54 0 0.0 0.0 0.00 0.38 0.38 76 1008.9
20260502203121 53 190 0.0 0.0 0.00 0.38 0.38 76 1009.6
20260502202505 54 0 0.0 0.0 0.00 0.38 0.38 75 1009.0
20260502202004 54 0 0.0 0.0 0.00 0.38 0.38 75 1009.0
20260502201604 53 190 0.0 0.0 0.00 0.38 0.38 76 1009.8
20260502201504 53 0 0.0 0.0 0.00 0.38 0.38 76 1009.2
20260502201004 53 0 0.0 0.0 0.00 0.38 0.38 76 1009.3
20260502200504 53 0 0.0 0.0 0.00 0.38 0.38 78 1009.3
20260502200104 52 190 0.0 0.0 0.00 0.38 0.38 78 1010.1
20260502195504 52 0 0.0 0.0 0.00 0.38 0.38 78 1009.5
20260502195004 52 0 0.0 0.0 0.00 0.38 0.38 78 1009.5
20260502194604 51 190 0.0 0.0 0.00 0.38 0.38 79 1010.3
20260502194004 52 0 0.0 0.0 0.00 0.38 0.38 79 1009.7
20260502193504 52 0 0.0 0.0 0.00 0.38 0.38 79 1009.7
20260502193103 51 190 0.0 0.0 0.00 0.38 0.38 78 1010.3
20260502193004 52 0 0.0 0.0 0.00 0.38 0.38 79 1009.7
20260502192505 52 0 0.0 0.0 0.00 0.38 0.38 79 1009.7
20260502192004 52 0 0.0 0.0 0.00 0.38 0.38 78 1009.8
20260502191621 51 190 0.0 0.0 0.01 0.38 0.38 78 1010.5
20260502191504 52 0 0.0 0.0 0.01 0.38 0.38 78 1009.8
20260502191004 52 0 0.0 0.0 0.01 0.38 0.38 79 1009.9
20260502190504 52 0 0.0 0.0 0.01 0.38 0.38 78 1009.8
20260502190112 51 190 0.0 0.0 0.01 0.38 0.38 78 1010.5
20260502190005 52 0 0.0 0.0 0.01 0.38 0.38 78 1009.9
20260502185505 52 0 0.0 0.0 0.01 0.38 0.38 79 1009.9
20260502185004 52 0 0.0 0.0 0.01 0.38 0.38 80 1009.9
20260502184603 51 190 0.0 0.0 0.01 0.38 0.38 79 1010.5
20260502184504 52 0 0.0 0.0 0.01 0.38 0.38 79 1009.9
20260502183105 51 190 0.0 0.0 0.02 0.38 0.38 79 1010.5
20260502183005 51 0 0.0 0.0 0.02 0.38 0.38 79 1009.9
20260502182504 51 0 0.0 0.0 0.03 0.38 0.38 79 1009.9
20260502181605 51 190 0.0 0.0 0.03 0.37 0.37 80 1010.6
20260502181504 51 0 0.0 0.0 0.03 0.37 0.37 79 1010.0
20260502180115 51 190 0.0 0.0 0.03 0.37 0.37 80 1010.6
20260502170504 49 0 0.0 0.0 0.05 0.34 0.34 78 1010.2
20260502170104 49 190 0.0 0.0 0.05 0.34 0.34 78 1010.8
20260502164004 51 0 0.0 0.0 0.03 0.32 0.32 75 1010.2
20260502163504 52 0 0.0 0.0 0.02 0.31 0.31 72 1010.1
20260502163112 52 190 0.0 0.0 0.01 0.30 0.30 69 1010.8
20260502163005 53 0 0.0 0.0 0.01 0.30 0.30 69 1010.2
20260502162505 55 0 0.0 0.0 0.00 0.29 0.29 66 1010.1
20260502162004 55 0 0.0 0.0 0.00 0.29 0.29 65 1010.0
20260502161604 55 190 0.0 0.0 0.00 0.28 0.28 64 1010.6
20260502161504 55 0 0.0 0.0 0.00 0.29 0.29 63 1010.0
20260502161004 56 0 0.0 0.0 0.00 0.29 0.29 63 1010.0
20260502160504 56 0 0.0 0.0 0.00 0.29 0.29 64 1010.1
20260502160107 55 190 0.0 0.0 0.00 0.28 0.28 64 1010.7
20260502152004 56 0 0.0 0.0 0.00 0.29 0.29 67 1010.3
20260502151623 55 190 0.0 0.0 0.00 0.28 0.28 74 1011.0
20260502151004 54 0 0.0 0.0 0.00 0.29 0.29 71 1010.6
20260502150504 53 0 0.0 0.0 0.00 0.29 0.29 72 1010.6
20260502150106 53 190 0.0 0.0 0.00 0.28 0.28 72 1011.2
20260502130504 50 0 0.0 0.0 0.00 0.29 0.29 82 1011.0
20260502130110 49 190 0.0 0.0 0.00 0.28 0.28 82 1011.6
20260502123505 48 0 0.0 0.0 0.00 0.29 0.29 82 1010.9
20260502123106 48 190 0.0 0.0 0.05 0.30 0.28 82 1011.6
20260502123005 48 0 0.0 0.0 0.00 0.29 0.29 82 1011.0
20260502122505 48 0 0.0 0.0 0.00 0.29 0.29 82 1011.1
20260502122005 48 0 0.0 0.0 0.00 0.29 0.29 82 1011.3
20260502121603 47 190 0.0 0.0 0.10 0.30 0.28 82 1011.8
20260502121504 48 0 0.0 0.0 0.00 0.29 0.29 82 1011.1
20260502121004 47 0 0.0 0.0 0.00 0.29 0.29 82 1011.0
20260502120104 46 190 0.0 0.0 0.14 0.30 0.28 82 1011.7
20260502115504 46 0 0.0 0.0 0.14 0.29 0.29 82 1011.3
20260502114551 46 190 0.0 0.0 0.12 0.28 0.27 82 1012.1
20260502113052 46 190 0.0 0.0 0.12 0.24 0.23 82 1012.1
20260502111550 45 190 0.0 0.0 0.12 0.20 0.19 82 1012.2
20260502110048 45 190 0.0 0.0 0.09 0.16 0.15 82 1011.9
20260502104547 45 190 0.0 0.0 0.09 0.16 0.15 82 1011.9
20260502103046 45 190 0.0 0.0 0.05 0.12 0.11 82 1012.3
20260502101544 45 190 0.0 0.0 0.01 0.08 0.07 82 1011.8
20260502070046 46 190 0.0 0.0 0.00 0.02 0.01 81 1011.3
20260502064543 46 190 0.0 0.0 0.01 0.02 0.01 81 1010.9
20260502063032 46 190 0.0 0.0 0.01 0.02 0.01 81 1011.0
20260502061531 46 190 0.0 0.0 0.01 0.02 0.01 80 1011.0
20260502060030 47 190 0.0 0.0 0.01 0.02 0.01 79 1011.5
20260502054528 47 190 0.0 0.0 0.00 0.01 0.00 78 1011.6
20260502053026 47 190 0.0 0.0 0.00 0.01 0.00 75 1011.2
20260502051527 47 190 0.0 0.0 0.00 0.01 0.00 72 1011.5
20260502050024 47 190 0.0 0.0 0.00 0.01 0.00 71 1011.5
20260502044520 47 190 0.0 0.0 0.00 0.01 0.00 70 1011.1
20260502043019 47 190 0.0 0.0 0.00 0.01 0.00 69 1011.2
20260502041518 47 190 0.0 0.0 0.00 0.01 0.00 69 1011.2
20260502040015 47 190 0.0 0.0 0.00 0.01 0.00 67 1011.3
20260502034527 47 190 0.0 0.0 0.00 0.01 0.01 67 1011.4